Regional Weather Roundup
Issued by NWS

Current Version |  Previous Version |  Text Only |  Print | Product List |  Glossary On
Versions: 1 2 3 4 5 6 7 8 9 10 11 12 13 14 15 16 17 18 19 20 21 22 23 24 25 26 27 28
436
ASPQ40 PGUM 211510
RWRPQ
WEATHER ROUNDUP FOR THE MARIANAS AND MICRONESIA
NATIONAL WEATHER SERVICE TIYAN GU
100 AM CHST WED MAY 22 2024

GUZ001>004-211600-
MARIANA ISLANDS-

CITY           SKY/WX    TMP DP  RH WIND       PRES   REMARKS
GUAM AIRPORT   PTCLDY    81  79  94 E10       29.88F
ANDERSEN AFB   NOT AVBL
ROTA AIRPORT   NOT AVBL
TINIAN AP      NOT AVBL
SAIPAN AP      PTCLDY    84  75  74 E17G24    29.90F HX  92

$$

PMZ161-211600-
REPUBLIC OF PALAU-

CITY           SKY/WX    TMP DP  RH WIND       PRES   REMARKS
KOROR AP       MOCLDY    81  79  94 NE6       29.77F THUNDER
KOROR WSO      NOT AVBL

$$

PMZ171>174-211600-
FEDERATED STATES OF MICRONESIA-

CITY           SKY/WX    TMP DP  RH WIND       PRES   REMARKS
YAP AIRPORT    CLOUDY    82  79  89 E14       29.76F HX  93
CHUUK AP       MOCLDY    82  79  89 VRB6      29.77F HX  93
POHNPEI AP     NOT AVBL
POHNPEI WSO    CLOUDY    84  77  79 SE3       29.83F HX  94
KOSRAE AP      NOT AVBL

$$

PMZ181-211600-
REPUBLIC OF THE MARSHALL ISLANDS-

CITY           SKY/WX    TMP DP  RH WIND       PRES   REMARKS
KWAJALEIN AP   PTCLDY    77  73  88 E15       29.83F
MAJURO AP      NOT AVBL
MAJURO WSO     NOT AVBL

$$